This is the latest recevied weather packets stored in our database for station/object KB9PVH-3. If no packets are shown the sender has not sent any weather packets the latest 10 day(s).
| Time | Temp. | Humidity | Pressure | Rain* | Wind** | Luminosity | Snow |
|---|---|---|---|---|---|---|---|
| 1777847821 | 22.22° C | 40% | 1005.6 hPa | 0 mm | - | - | - |
| 1777846775 | 22.22° C | 39% | 1005.6 hPa | 0 mm | - | - | - |
| 1777845721 | 21.67° C | 39% | 1005.9 hPa | 0 mm | - | - | - |
| 1777844671 | 22.22° C | 38% | 1005.8 hPa | 0 mm | - | - | - |
| 1777843621 | 21.67° C | 40% | 1006.1 hPa | 0 mm | - | - | - |
| 1777842575 | 21.11° C | 40% | 1006.1 hPa | 0 mm | - | - | - |
| 1777841521 | 22.22° C | 39% | 1006.3 hPa | 0 mm | - | - | - |
| 1777840471 | 21.11° C | 41% | 1006.5 hPa | 0 mm | - | - | - |
| 1777839425 | 21.67° C | 40% | 1006.8 hPa | 0 mm | - | - | - |
| 1777838375 | 20.56° C | 42% | 1006.6 hPa | 0 mm | - | - | - |
| 1777836276 | 19.44° C | 45% | 1007.4 hPa | 0 mm | - | - | - |
| 1777834175 | 18.89° C | 43% | 1008 hPa | 0 mm | - | - | - |
| 1777833125 | 18.33° C | 45% | 1007.9 hPa | 0 mm | - | - | - |
| 1777829971 | 17.22° C | 47% | 1008.7 hPa | 0 mm | - | - | - |
| 1777828925 | 17.78° C | 45% | 1009 hPa | 0 mm | - | - | - |
| 1777827875 | 17.22° C | 51% | 1009.6 hPa | 0 mm | - | - | - |
| 1777826821 | 16.11° C | 54% | 1009.7 hPa | 0 mm | - | - | - |
| 1777825771 | 15.56° C | 54% | 1010.2 hPa | 0 mm | - | - | - |
| 1777824721 | 14.44° C | 60% | 1010.4 hPa | 0 mm | - | - | - |
| 1777823671 | 13.33° C | 66% | 1010.6 hPa | 0 mm | - | - | - |
| 1777822621 | 12.22° C | 68% | 1010.5 hPa | 0 mm | - | - | - |
| 1777821575 | 11.67° C | 69% | 1011.1 hPa | 0 mm | - | - | - |
| 1777820521 | 11.11° C | 69% | 1011.1 hPa | 0.51 mm | - | - | - |
| 1777819471 | 11.67° C | 64% | 1011.3 hPa | 0 mm | - | - | - |
| 1777818421 | 11.67° C | 62% | 1011.4 hPa | 0 mm | - | - | - |
* Rain latest hour (hover to see other rain measurements)
** Current wind speed in m/s (hover to see current wind gust speed)